Retour au catalogue

STARLINK-32798

ActifCommunicationsVLEO
NORAD 63029·PAYLOAD·🇺🇸 United States

Lancé Feb 18, 2025 depuis Cape Canaveral Space Force Station

Loading…

Prochains Passages (prochaines 24 heures)

TLE

FraisSource: CelesTrak SupGP

Époque: Sep 15, 2026, 02:23 UTC

1 63029C 25034A   26258.09979167  .00028338  00000+0  83716-3 0  2584
2 63029  53.1575 108.6170 0001290  78.3710 211.4034 15.34379809    14

Suivez STARLINK-32798 en temps réel avec AllMySat

Download on the App Store